FW9985 Weather Reports


time (UTC)temp
C
wind
direction
speed
KPH
gust
KPH
rain 1hr
cm
rain 24hr
cm
rain mn
cm
humidity
%
barometer
mb
20260508054530 7 248 1.6 4.8 0.00 0.00 0.00 66 1013.7
20260508053028 6 248 0.0 4.8 0.00 0.00 0.00 70 1013.9
20260508051528 6 254 3.2 9.7 0.00 0.00 0.00 71 1014.0
20260508050034 6 298 1.6 4.8 0.00 0.00 0.00 73 1014.0
20260508044528 5 0 0.0 0.0 0.00 0.00 0.00 76 1013.9
20260508043032 5 0 0.0 0.0 0.00 0.00 0.00 77 1013.8
20260508041533 6 0 0.0 4.8 0.00 0.00 0.00 73 1013.6
20260508040033 5 298 1.6 4.8 0.00 0.00 0.00 73 1013.6
20260508034533 5 298 1.6 3.2 0.00 0.00 0.00 76 1013.6
20260508033031 5 298 1.6 4.8 0.00 0.00 0.00 77 1013.6
20260508031530 5 0 0.0 0.0 0.00 0.00 0.00 75 1013.7
20260508030034 5 0 0.0 0.0 0.00 0.00 0.00 75 1013.8
20260508024531 5 0 0.0 0.0 0.00 0.00 0.00 73 1013.7
20260508023035 6 0 0.0 0.0 0.00 0.00 0.00 69 1013.8
20260508021534 7 0 0.0 1.6 0.00 0.00 0.00 67 1013.6
20260508020031 7 0 0.0 0.0 0.00 0.00 0.00 62 1013.5
20260508014534 8 0 0.0 1.6 0.00 0.00 0.00 58 1013.5
20260508013031 8 0 0.0 1.6 0.00 0.00 0.00 55 1013.3
20260508011544 9 0 0.0 3.2 0.00 0.00 0.00 52 1013.2
20260508010033 9 298 1.6 6.4 0.00 0.00 0.00 51 1013.0
20260508004535 10 0 0.0 12.9 0.00 0.00 0.00 52 1013.1
20260508003036 10 332 6.4 11.3 0.00 0.00 0.00 49 1012.9
20260508001533 11 306 8.0 14.5 0.00 0.00 0.00 48 1012.7
20260508000031 11 319 4.8 19.3 0.00 0.00 0.00 47 1012.3
20260507234530 11 313 9.7 22.5 0.00 0.00 0.00 44 1012.3
20260507233032 11 18 8.0 19.3 0.00 0.00 0.00 45 1012.3
20260507231529 12 310 14.5 24.1 0.00 0.00 0.00 44 1012.2
20260507230029 12 271 8.0 29.0 0.00 0.00 0.00 45 1012.1
20260507224528 12 319 17.7 40.2 0.00 0.00 0.00 44 1012.2
20260507223032 13 290 9.7 24.1 0.00 0.00 0.00 47 1012.0
20260507221530 12 351 16.1 30.6 0.00 0.00 0.00 45 1011.9
20260507220031 13 9 16.1 37.0 0.00 0.00 0.00 44 1011.6
20260507214531 13 285 12.9 30.6 0.00 0.00 0.00 44 1011.2
20260507213033 14 305 14.5 33.8 0.00 0.00 0.00 42 1011.1
20260507211528 15 342 11.3 24.1 0.00 0.00 0.00 42 1010.8
20260507210031 15 341 11.3 29.0 0.00 0.00 0.00 40 1010.8
20260507204530 14 11 8.0 22.5 0.00 0.00 0.00 42 1010.8
20260507203030 15 298 12.9 20.9 0.00 0.00 0.00 41 1010.7
20260507201531 13 5 12.9 25.7 0.00 0.00 0.00 44 1011.0
20260507200037 14 276 12.9 29.0 0.00 0.00 0.00 42 1011.0
20260507194530 14 300 9.7 19.3 0.00 0.00 0.00 42 1011.1
20260507193033 14 339 9.7 27.4 0.00 0.00 0.00 42 1011.2
20260507191531 14 280 11.3 29.0 0.00 0.00 0.00 40 1011.2
20260507190037 15 304 11.3 24.1 0.00 0.00 0.00 41 1011.1
20260507184536 15 325 17.7 30.6 0.00 0.00 0.00 40 1011.1
20260507183030 15 285 11.3 22.5 0.00 0.00 0.00 40 1011.2
20260507181532 15 315 14.5 24.1 0.00 0.00 0.00 38 1011.3
20260507180034 13 281 11.3 24.1 0.00 0.00 0.00 44 1011.4
20260507174537 13 309 11.3 27.4 0.00 0.00 0.00 38 1011.7
20260507173032 14 290 9.7 29.0 0.00 0.00 0.00 41 1011.7
20260507171531 13 239 12.9 25.7 0.00 0.00 0.00 39 1011.8
20260507170028 13 325 9.7 27.4 0.00 0.00 0.00 43 1011.9
20260507164530 13 244 9.7 22.5 0.00 0.00 0.00 44 1012.2
20260507163030 13 273 8.0 29.0 0.00 0.00 0.00 44 1012.2
20260507161530 13 257 14.5 22.5 0.00 0.00 0.00 45 1012.1
20260507160030 13 281 14.5 24.1 0.00 0.00 0.00 45 1012.2
20260507154537 12 262 11.3 25.7 0.00 0.00 0.00 47 1012.4
20260507153033 12 307 8.0 22.5 0.00 0.00 0.00 48 1012.3
20260507151531 12 316 12.9 24.1 0.00 0.00 0.00 49 1012.5
20260507150032 11 296 6.4 24.1 0.00 0.00 0.00 55 1012.7
20260507144531 11 312 8.0 19.3 0.00 0.00 0.00 55 1012.9
20260507143029 12 305 6.4 20.9 0.00 0.00 0.00 55 1012.9
20260507141530 11 303 11.3 24.1 0.00 0.00 0.00 58 1013.2
20260507140029 11 288 9.7 17.7 0.00 0.00 0.00 62 1013.3
20260507134530 10 277 6.4 24.1 0.00 0.00 0.00 66 1013.4
20260507133032 10 298 4.8 19.3 0.00 0.00 0.00 67 1013.4
20260507131529 10 298 9.7 16.1 0.00 0.00 0.00 70 1013.5
20260507130031 9 310 8.0 19.3 0.00 0.00 0.00 70 1013.4
20260507124530 8 273 3.2 12.9 0.00 0.13 0.00 74 1013.4
20260507123033 8 227 6.4 11.3 0.00 0.13 0.00 76 1013.7
20260507121537 7 221 4.8 8.0 0.00 0.13 0.00 79 1013.5
20260507120029 6 223 4.8 9.7 0.00 0.13 0.00 81 1013.4
20260507114529 5 219 3.2 6.4 0.00 0.25 0.00 87 1013.5
20260507113034 3 176 3.2 6.4 0.00 0.25 0.00 91 1013.4
20260507111527 2 0 0.0 0.0 0.00 0.25 0.00 92 1013.4
20260507110029 2 0 0.0 1.6 0.00 0.25 0.00 93 1013.2
20260507104531 1 0 0.0 3.2 0.00 0.30 0.00 93 1013.2
20260507103032 1 224 1.6 3.2 0.00 0.30 0.00 93 1013.2
20260507101535 1 224 1.6 4.8 0.00 0.30 0.00 94 1013.1
20260507100034 1 224 1.6 4.8 0.00 0.30 0.00 94 1013.0
20260507094530 1 0 0.0 0.0 0.00 0.53 0.00 94 1013.0
20260507093036 1 0 0.0 0.0 0.00 0.53 0.00 93 1013.0
20260507091529 1 0 0.0 0.0 0.00 0.53 0.00 93 1013.0
20260507090032 2 0 0.0 0.0 0.00 0.53 0.00 93 1013.1
20260507084528 2 0 0.0 0.0 0.00 0.81 0.00 93 1013.2
20260507083037 2 0 0.0 0.0 0.00 0.81 0.00 92 1013.2
20260507081530 2 0 0.0 0.0 0.00 0.81 0.00 92 1013.2
20260507080031 2 0 0.0 0.0 0.00 0.81 0.00 92 1013.2
20260507074530 3 0 0.0 0.0 0.00 1.14 0.00 92 1013.2
20260507073028 3 0 0.0 1.6 0.00 1.14 0.00 92 1013.3
20260507071535 3 224 3.2 4.8 0.00 1.14 0.00 92 1013.3
20260507070031 3 224 3.2 4.8 0.00 1.14 0.00 91 1013.3
20260507064529 3 224 1.6 4.8 0.00 1.17 0.00 91 1013.4
20260507063035 4 0 0.0 4.8 0.00 1.17 0.00 90 1013.4
20260507061530 4 0 0.0 0.0 0.00 1.17 0.00 89 1013.5
20260507060028 5 0 0.0 0.0 0.00 1.17 0.00 87 1013.8